Time,TemperatureF,DewpointF,PressureIn,WindDirection,WindDirectionDegrees,WindSpeedMPH,WindSpeedGustMPH,Humidity,HourlyPrecipIn,Conditions,Clouds,dailyrainin,SoftwareType,DateUTC
2013-05-16 06:35:00,53.0,51.0,30.07,South,186,0.0,0.0,92,-99.99,,,-99.99,,2013-05-16 13:35:00,
2013-05-16 06:43:00,53.0,51.0,30.07,South,186,0.0,0.0,92,-99.99,,,-99.99,,2013-05-16 13:43:00,
2013-05-16 06:55:00,53.0,51.0,30.07,South,186,0.0,0.0,92,-99.99,,,-99.99,,2013-05-16 13:55:00,
2013-05-16 07:05:00,53.0,51.0,30.07,South,186,0.0,2.0,92,-99.99,,,-99.99,,2013-05-16 14:05:00,
2013-05-16 07:15:00,53.0,51.0,30.07,South,186,0.0,2.0,92,-99.99,,,-99.99,,2013-05-16 14:15:00,
2013-05-16 07:23:00,53.0,51.0,30.07,South,186,0.0,2.0,92,-99.99,,,-99.99,,2013-05-16 14:23:00,
2013-05-16 07:37:00,53.0,51.0,30.08,South,187,0.0,1.0,92,0.00,,,-99.99,,2013-05-16 14:37:00,
2013-05-16 07:47:00,53.0,51.0,30.08,South,187,0.0,1.0,92,0.00,,,-99.99,,2013-05-16 14:47:00,
2013-05-16 07:56:00,53.0,51.0,30.08,South,187,0.0,1.0,92,0.00,,,-99.99,,2013-05-16 14:56:00,
2013-05-16 08:08:00,54.0,52.0,30.08,South,187,0.0,1.0,93,0.00,,,-99.99,,2013-05-16 15:08:00,
2013-05-16 08:17:00,54.0,52.0,30.08,South,187,0.0,1.0,93,0.00,,,-99.99,,2013-05-16 15:17:00,
2013-05-16 08:28:00,54.0,52.0,30.08,South,187,0.0,1.0,93,0.00,,,-99.99,,2013-05-16 15:28:00,
2013-05-16 08:40:00,54.0,52.0,30.07,South,187,1.0,1.0,92,0.00,,,-99.99,,2013-05-16 15:40:00,
2013-05-16 08:50:00,54.0,52.0,30.07,South,187,1.0,1.0,92,0.00,,,-99.99,,2013-05-16 15:50:00,
2013-05-16 09:00:00,54.0,52.0,30.07,South,187,1.0,1.0,92,0.00,,,-99.99,,2013-05-16 16:00:00,
2013-05-16 09:09:00,55.0,52.0,30.07,SE,136,1.0,4.0,90,0.00,,,-99.99,,2013-05-16 16:09:00,
2013-05-16 09:19:00,55.0,52.0,30.07,SE,136,1.0,4.0,90,0.00,,,-99.99,,2013-05-16 16:19:00,
2013-05-16 09:30:00,55.0,52.0,30.07,SE,136,1.0,4.0,90,0.00,,,-99.99,,2013-05-16 16:30:00,
2013-05-16 09:40:00,57.0,-99.9,30.08,SSW,192,2.0,3.0,85,0.00,,,-99.99,,2013-05-16 16:40:00,
2013-05-16 09:51:00,57.0,53.0,30.08,SSW,192,2.0,3.0,85,0.00,,,-99.99,,2013-05-16 16:51:00,
2013-05-16 10:00:00,57.0,53.0,30.08,SSW,192,2.0,3.0,85,0.00,,,-99.99,,2013-05-16 17:00:00,
2013-05-16 10:10:00,57.0,52.0,30.09,SSE,147,0.0,2.0,84,0.01,,,-99.99,,2013-05-16 17:10:00,
2013-05-16 10:20:00,57.0,52.0,30.09,SSE,147,0.0,2.0,84,0.01,,,-99.99,,2013-05-16 17:20:00,
2013-05-16 10:30:00,57.0,52.0,30.09,SSE,147,0.0,2.0,84,0.01,,,-99.99,,2013-05-16 17:30:00,
2013-05-16 10:40:00,57.0,52.0,30.09,SSW,205,0.0,4.0,84,0.01,,,-99.99,,2013-05-16 17:40:00,
2013-05-16 10:50:00,-999.0,-99.9,30.09,SSW,212,3.0,6.0,82,0.00,,,-99.99,,2013-05-16 17:50:00,
2013-05-16 11:00:00,57.0,-99.9,30.09,SSW,212,3.0,6.0,82,0.00,,,-99.99,,2013-05-16 18:00:00,
2013-05-16 11:10:00,57.0,52.0,30.09,SSW,212,3.0,6.0,82,0.00,,,-99.99,,2013-05-16 18:10:00,
2013-05-16 11:20:00,57.0,52.0,30.09,SSW,212,3.0,6.0,82,0.00,,,-99.99,,2013-05-16 18:20:00,
2013-05-16 11:30:00,-999.0,-99.9,30.09,SSW,212,3.0,6.0,82,0.00,,,-99.99,,2013-05-16 18:30:00,
2013-05-16 11:40:00,-999.0,-99.9,30.09,SSW,202,2.0,4.0,83,0.00,,,-99.99,,2013-05-16 18:40:00,
2013-05-16 11:50:00,-999.0,-99.9,30.09,SSW,202,2.0,4.0,83,0.00,,,-99.99,,2013-05-16 18:50:00,
2013-05-16 12:00:00,-999.0,-99.9,30.09,SSW,202,2.0,4.0,83,0.00,,,-99.99,,2013-05-16 19:00:00,
2013-05-16 12:10:00,59.0,52.0,30.10,SE,129,1.0,7.0,79,0.00,,,-99.99,,2013-05-16 19:10:00,
2013-05-16 12:20:00,59.0,52.0,30.10,SE,129,1.0,7.0,79,0.00,,,-99.99,,2013-05-16 19:20:00,
2013-05-16 12:30:00,59.0,52.0,30.10,SE,129,1.0,7.0,79,0.00,,,-99.99,,2013-05-16 19:30:00,
2013-05-16 12:40:00,60.0,-99.9,30.10,WSW,243,2.0,6.0,74,0.00,,,-99.99,,2013-05-16 19:40:00,
2013-05-16 12:51:00,-999.0,-99.9,30.10,WSW,243,2.0,6.0,74,0.00,,,-99.99,,2013-05-16 19:51:00,
2013-05-16 13:00:00,-999.0,-99.9,30.10,WSW,243,2.0,6.0,74,0.00,,,-99.99,,2013-05-16 20:00:00,
2013-05-16 13:10:00,-999.0,-99.9,30.10,SW,215,0.0,5.0,72,0.00,,,-99.99,,2013-05-16 20:10:00,
2013-05-16 13:20:00,61.0,-99.9,30.10,SW,215,0.0,5.0,72,0.00,,,-99.99,,2013-05-16 20:20:00,
2013-05-16 13:30:00,61.0,52.0,30.10,SW,215,0.0,5.0,72,0.00,,,-99.99,,2013-05-16 20:30:00,
2013-05-16 13:40:00,-999.0,-99.9,30.10,SW,227,2.0,5.0,75,0.00,,,-99.99,,2013-05-16 20:40:00,
2013-05-16 13:51:00,60.0,52.0,30.10,SW,227,2.0,5.0,75,0.00,,,-99.99,,2013-05-16 20:51:00,
2013-05-16 14:00:00,60.0,-99.9,30.10,SW,227,2.0,5.0,75,0.00,,,-99.99,,2013-05-16 21:00:00,
2013-05-16 14:10:00,58.0,-99.9,30.10,SE,139,1.0,3.0,82,0.04,,,-99.99,,2013-05-16 21:10:00,
2013-05-16 14:20:00,58.0,-99.9,30.10,SE,139,1.0,3.0,82,0.04,,,-99.99,,2013-05-16 21:20:00,
2013-05-16 14:29:00,58.0,53.0,30.10,SE,139,1.0,3.0,82,0.04,,,-99.99,,2013-05-16 21:29:00,
2013-05-16 14:38:00,59.0,54.0,30.10,SSW,212,0.0,6.0,82,0.04,,,-99.99,,2013-05-16 21:38:00,
2013-05-16 14:50:00,59.0,-99.9,30.10,SSW,212,0.0,6.0,82,0.04,,,-99.99,,2013-05-16 21:50:00,
2013-05-16 15:00:00,-999.0,-99.9,30.10,SSW,212,0.0,6.0,82,0.04,,,-99.99,,2013-05-16 22:00:00,
2013-05-16 15:07:00,59.0,54.0,30.10,SSW,212,0.0,3.0,82,0.00,,,-99.99,,2013-05-16 22:07:00,
2013-05-16 15:20:00,59.0,54.0,30.10,SSW,212,0.0,3.0,82,0.00,,,-99.99,,2013-05-16 22:20:00,
2013-05-16 15:30:00,59.0,54.0,30.10,SSW,212,0.0,3.0,82,0.00,,,-99.99,,2013-05-16 22:30:00,
2013-05-16 15:40:00,60.0,53.0,30.10,SSW,213,0.0,3.0,79,0.00,,,-99.99,,2013-05-16 22:40:00,
2013-05-16 15:51:00,60.0,53.0,30.10,SSW,213,0.0,3.0,79,0.00,,,-99.99,,2013-05-16 22:51:00,
2013-05-16 16:00:00,60.0,53.0,30.10,SSW,213,0.0,3.0,79,0.00,,,-99.99,,2013-05-16 23:00:00,
2013-05-16 16:06:00,60.0,52.0,30.10,SSE,148,1.0,5.0,75,0.00,,,-99.99,,2013-05-16 23:06:00,
2013-05-16 16:16:00,60.0,52.0,30.10,SSE,148,1.0,5.0,75,0.00,,,-99.99,,2013-05-16 23:16:00,
2013-05-16 16:24:00,60.0,52.0,30.10,SSE,148,1.0,5.0,75,0.00,,,-99.99,,2013-05-16 23:24:00,
2013-05-16 16:34:00,61.0,52.0,30.10,SSW,207,0.0,7.0,72,0.00,,,-99.99,,2013-05-16 23:34:00,
2013-05-16 16:45:00,61.0,52.0,30.10,SSW,207,0.0,7.0,72,0.00,,,-99.99,,2013-05-16 23:45:00,
2013-05-16 16:54:00,61.0,52.0,30.10,SSW,207,0.0,7.0,72,0.00,,,-99.99,,2013-05-16 23:54:00,
2013-05-16 17:02:00,63.0,51.0,30.09,SE,137,2.0,7.0,66,0.00,,,-99.99,,2013-05-17 00:02:00,
2013-05-16 17:13:00,63.0,51.0,30.09,SE,137,2.0,7.0,66,0.00,,,-99.99,,2013-05-17 00:13:00,
2013-05-16 17:22:00,63.0,51.0,30.09,SE,137,2.0,7.0,66,0.00,,,-99.99,,2013-05-17 00:22:00,
2013-05-16 17:33:00,63.0,49.0,30.10,SSW,199,3.0,6.0,61,0.00,,,-99.99,,2013-05-17 00:33:00,
2013-05-16 17:43:00,63.0,49.0,30.10,SSW,199,3.0,6.0,61,0.00,,,-99.99,,2013-05-17 00:43:00,
2013-05-16 17:53:00,63.0,49.0,30.10,SSW,199,3.0,6.0,61,0.00,,,-99.99,,2013-05-17 00:53:00,
2013-05-16 18:03:00,63.0,50.0,30.09,SSW,202,1.0,6.0,63,0.00,,,-99.99,,2013-05-17 01:03:00,
2013-05-16 18:12:00,63.0,50.0,30.09,SSW,202,1.0,6.0,63,0.00,,,-99.99,,2013-05-17 01:12:00,
2013-05-16 18:23:00,63.0,50.0,30.09,SSW,202,1.0,6.0,63,0.00,,,-99.99,,2013-05-17 01:23:00,
2013-05-16 18:31:00,61.0,50.0,30.10,SSW,203,1.0,4.0,68,0.00,,,-99.99,,2013-05-17 01:31:00,
2013-05-16 18:43:00,61.0,50.0,30.10,SSW,203,1.0,4.0,68,0.00,,,-99.99,,2013-05-17 01:43:00,
2013-05-16 18:52:00,60.0,49.0,30.09,SSW,196,3.0,5.0,68,0.00,,,-99.99,,2013-05-17 01:52:00,
2013-05-16 19:02:00,60.0,49.0,30.09,SSW,196,3.0,5.0,68,0.00,,,-99.99,,2013-05-17 02:02:00,
2013-05-16 19:11:00,60.0,49.0,30.09,SSW,196,3.0,5.0,68,0.00,,,-99.99,,2013-05-17 02:11:00,
2013-05-16 19:21:00,60.0,49.0,30.09,SSW,196,3.0,5.0,68,0.00,,,-99.99,,2013-05-17 02:21:00,
2013-05-16 19:32:00,60.0,49.0,30.09,SSW,200,0.0,5.0,68,0.00,,,-99.99,,2013-05-17 02:32:00,
2013-05-16 19:42:00,60.0,49.0,30.09,SSW,200,0.0,5.0,68,0.00,,,-99.99,,2013-05-17 02:42:00,
2013-05-16 19:53:00,60.0,49.0,30.09,SSW,200,0.0,5.0,68,0.00,,,-99.99,,2013-05-17 02:53:00,
2013-05-16 20:01:00,59.0,50.0,30.10,SSW,199,0.0,0.0,71,0.00,,,-99.99,,2013-05-17 03:01:00,
2013-05-16 20:11:00,59.0,50.0,30.10,SSW,199,0.0,0.0,71,0.00,,,-99.99,,2013-05-17 03:11:00,
2013-05-16 20:22:00,59.0,50.0,30.10,SSW,199,0.0,0.0,71,0.00,,,-99.99,,2013-05-17 03:22:00,
2013-05-16 20:33:00,58.0,50.0,30.10,SSW,200,0.0,0.0,75,0.00,,,-99.99,,2013-05-17 03:33:00,
2013-05-16 20:43:00,58.0,50.0,30.10,SSW,200,0.0,0.0,75,0.00,,,-99.99,,2013-05-17 03:43:00,
2013-05-16 20:53:00,58.0,50.0,30.10,SSW,200,0.0,0.0,75,0.00,,,-99.99,,2013-05-17 03:53:00,
2013-05-16 21:02:00,56.0,50.0,30.10,SSW,200,0.0,0.0,79,0.00,,,-99.99,,2013-05-17 04:02:00,
2013-05-16 21:13:00,56.0,50.0,30.10,SSW,200,0.0,0.0,79,0.00,,,-99.99,,2013-05-17 04:13:00,
2013-05-16 21:23:00,56.0,50.0,30.10,SSW,200,0.0,0.0,79,0.00,,,-99.99,,2013-05-17 04:23:00,
2013-05-16 21:33:00,54.0,49.0,30.11,SSW,200,0.0,0.0,83,0.00,,,-99.99,,2013-05-17 04:33:00,
2013-05-16 21:43:00,54.0,49.0,30.11,SSW,200,0.0,0.0,83,0.00,,,-99.99,,2013-05-17 04:43:00,
2013-05-16 21:53:00,54.0,49.0,30.11,SSW,200,0.0,0.0,83,0.00,,,-99.99,,2013-05-17 04:53:00,
2013-05-16 22:02:00,53.0,49.0,30.11,SSW,200,0.0,0.0,86,0.00,,,-99.99,,2013-05-17 05:02:00,
2013-05-16 22:14:00,53.0,49.0,30.11,SSW,200,0.0,0.0,86,0.00,,,-99.99,,2013-05-17 05:14:00,
2013-05-16 22:21:00,53.0,49.0,30.11,SSW,200,0.0,0.0,86,0.00,,,-99.99,,2013-05-17 05:21:00,
2013-05-16 22:32:00,53.0,49.0,30.12,SSW,200,0.0,0.0,87,0.00,,,-99.99,,2013-05-17 05:32:00,
2013-05-16 22:43:00,53.0,49.0,30.12,SSW,200,0.0,0.0,87,0.00,,,-99.99,,2013-05-17 05:43:00,
2013-05-16 22:52:00,53.0,49.0,30.12,SSW,200,0.0,0.0,87,0.00,,,-99.99,,2013-05-17 05:52:00,
2013-05-16 23:01:00,53.0,50.0,30.12,SSW,200,0.0,0.0,88,0.00,,,-99.99,,2013-05-17 06:01:00,
2013-05-16 23:11:00,53.0,50.0,30.12,SSW,200,0.0,0.0,88,0.00,,,-99.99,,2013-05-17 06:11:00,
2013-05-16 23:21:00,53.0,50.0,30.12,SSW,200,0.0,0.0,88,0.00,,,-99.99,,2013-05-17 06:21:00,
2013-05-16 23:32:00,53.0,50.0,30.12,SSW,200,0.0,0.0,88,0.00,,,-99.99,,2013-05-17 06:32:00,
2013-05-16 23:42:00,53.0,50.0,30.12,SSW,200,0.0,0.0,88,0.00,,,-99.99,,2013-05-17 06:42:00,
2013-05-16 23:52:00,53.0,50.0,30.12,SSW,200,0.0,0.0,88,0.00,,,-99.99,,2013-05-17 06:52:00,